Location: Fours
(44.3167°N, 6.7000°E)
Time: 02:05:03
(UTC+00:00)

deb Chang Zheng 4 - Pass Details

Date: 16 October 2021
Orbit: 595 x 616 km, 98.6° (Epoch: 02 December)

Event Time Altitude Azimuth Distance (km) Brightness Sun altitude
Rises 17:27:07 0° 166° (SSE) 2,822 6.9 -7.9°
Reaches altitude 10° 17:29:16 10° 168° (SSE) 1,925 6.0 -8.3°
Maximum altitude 17:33:26 83° 256° (WSW) 607 3.6 -9.0°
Drops below altitude 10° 17:37:40 10° 345° (NNW) 1,945 6.3 -9.8°
Sets 17:39:51 0° 346° (NNW) 2,855 7.1 -10.2°
